Location: Winthrop
(48.4780°N, 120.1850°W)
Time: 10:29:31
(UTC-07:00)

ACS3 Solar Sail - Visible Passes

Search period start: 07 October 2024 00:00
Search period end: 17 October 2024 00:00
Orbit: 962 x 1035 km, 97.4° (Epoch: 07 October)

Date Brightness Start Highest point End Pass type
(mag) Time Alt. Az. Time Alt. Az. Time Alt. Az.
07 Oct 2.9 19:22:06 11° ESE 19:26:54 25° ENE 19:31:52 10° N visible
07 Oct 2.0 21:07:15 33° S 21:10:16 72° WSW 21:16:38 10° NNW visible
07 Oct 4.4 22:52:27 10° WSW 22:55:18 13° W 22:58:08 10° NW visible
08 Oct 2.3 19:54:17 19° ESE 19:58:15 40° ENE 20:04:03 10° N visible
08 Oct 2.8 21:39:26 29° SW 21:42:07 43° W 21:48:07 10° NNW visible
09 Oct 1.8 20:26:26 30° SE 20:29:44 64° ENE 20:35:59 10° N visible
09 Oct 3.6 22:11:36 20° WSW 22:14:06 26° W 22:19:16 10° NW visible
10 Oct 3.0 19:13:26 10° ESE 19:18:05 23° ENE 19:22:48 10° N visible
10 Oct 1.9 20:58:35 37° S 21:01:21 79° WSW 21:07:42 10° NNW visible
10 Oct 4.3 22:43:45 12° WSW 22:46:16 15° W 22:49:39 10° NW visible
11 Oct 2.4 19:45:34 19° ESE 19:49:21 36° ENE 19:55:00 10° N visible
11 Oct 2.6 21:30:43 33° SSW 21:33:07 48° W 21:39:13 10° NNW visible
12 Oct 1.9 20:17:41 30° SE 20:20:46 58° ENE 20:26:55 10° N visible
12 Oct 3.5 22:02:51 23° WSW 22:05:03 28° W 22:10:24 10° NNW visible
13 Oct 3.1 19:04:40 10° ESE 19:09:08 21° ENE 19:13:35 10° NNE visible
13 Oct 1.8 20:49:48 40° S 20:52:19 87° WSW 20:58:39 10° NNW visible
13 Oct 4.1 22:34:57 14° WSW 22:37:06 16° W 22:40:57 10° NW visible
14 Oct 2.6 19:36:44 19° ESE 19:40:20 33° ENE 19:45:48 10° N visible
14 Oct 2.5 21:21:53 38° SSW 21:24:00 53° W 21:30:09 10° NNW visible
15 Oct 2.0 20:08:49 31° SE 20:11:41 53° ENE 20:17:44 10° N visible
15 Oct 3.3 21:53:58 27° WSW 21:55:51 31° W 22:01:22 10° NNW visible
16 Oct 3.2 18:55:56 10° E 19:00:05 19° NE 19:04:12 10° NNE visible
16 Oct 1.7 20:40:53 43° SSE 20:43:10 85° ENE 20:49:27 10° NNW visible
16 Oct 4.0 22:26:02 16° WSW 22:27:50 18° W 22:32:03 10° NW visible
